CZ-6A DEB, 55204

Orbit data source: Space-Track

CZ-6A DEB, 55204 is space debris in SSO originally from a launch on Fri, 11 Nov 2022 UTC launched from the Taiyaun Space Center, China (TSC). Debris objects in space refer to the collection of defunct objects orbiting the Earth. Examples of debris include non-operational satellites, rocket bodies, and fragments generated from explosions, collisions, or faulty payload assembly.

Loading next visibility...
Identifier
55204, 2022-151VV
Orbit
SSO
Country
Flag of CNCN / PRC
Related business
Manufacturer
SAST
Mission
Spacecraft
Bus & Motor
Unknown
Mass
Unknown
Launch date (UTC)
2022-11-11 (4 years ago)
Launch vehicle
Unknown
Launch site
Taiyaun Space Center, China (TSC)
Object type
Payload
Rocket body
Debris
Shape & HBR
Unknown shape, 0.1 m
Radar Cross Section
Small (<0.1 m²)

Expand to show TLE details & history
Last TLE update: 2 days ago

TLE from 2 days ago
0 CZ-6A DEB
1 55204U 22151VV  26171.14187598  .00018504  00000-0  19705-2 0  9999
2 55204  98.6148 247.1407 0057942 237.0259 122.5377 14.87730909186295
Epoch: 2026-06-20T03:24Z
TLE epoch observation values (Epoch: 2026-06-20T03:24:18.084Z)
Latitude
-0.00004°
Longitude
-72.29539°
Altitude
629.97 km
Speed
7.532 km/s
True Right ascension
16h 28m 33s
True Declination
0° 00' 00"
Sunlit
Object was in full shadow at epoch
Visualization orbit readout
Latitude
Unknown
Longitude
Unknown
Altitude
Unknown
Speed
Unknown
Apparent Right ascension
Unknown
Apparent Declination
Unknown
Sunlit
N/A
Visualization observer readout
Local Sidereal Time
21:31:15
Azimuth
Unknown
Elevation
Unknown
Doppler factor
Unknown
Orbital elements
Apogee altitude
642.536 km
Perigee altitude
561.646 km
Semi-major axis
6,980.228 km
Eccentricity
0.00579
Inclination
98.6148°
RAAN
247.1407°
Arg. of periapsis
237.0259°
True anomaly
123.09527°
Mean anomaly
122.5377°
Eccentric anomaly
122.8167°
Mean motion
3.72168 °/min
Orbital period
96.73 mins
BSTAR
0.0019705
Loading maneuver chart data...
Computing Atmospheric mass density...
Loading historical data...
Loading historical data...
Loading historical data...
Loading historical data...
Loading historical data...
Loading historical data...
Loading historical data...

Documentation

Showing up to 5 results
|